Terminal Aerodrome Forecast
Issued by NWS

Home | Current Version | Previous Version | Text Only | Print | Product List | Glossary On
Versions: 1 2 3 4 5 6 7 8 9 10 11 12 13 14 15 16 17 18 19 20 21
745
FTUS46 KMTR 280535
TAFSNS
TAF
KSNS 280535Z 2806/2906 28013KT P6SM OVC007
     FM280900 28005KT 6SM BR OVC003
     FM281300 28003KT 3SM BR OVC002
     FM281700 29006KT P6SM SKC
     FM282000 28015G20KT P6SM SKC
     FM290400 27011KT P6SM OVC007=

USA.gov is the U.S. government's official web portal to all federal, state and local government web resources and services.